When you browse on this site, cookies collect data to enhance your experience and personalize the content and advertising you see.
Visit our Privacy Policy to learn more. By continuing to use the site, you agree to this use of cookies and data.
  • en Belgique
  • Liste des pays
  • À 7 jours
  • Température de l'eau
  • Carte satellitaire
  • Carte météo
  • Widgets météo
  • user-avatar
    Se connecter

    Météo par heure à Albany

    Ce jour, 21 Février, Jeudi

    Heure Température Précipitation Vent Pression Humidité
    00:00 +19°C° 0 mm 4 m/s 754 mmHg 88%
    01:00 +19°C° 0 mm 4 m/s 754 mmHg 90%
    02:00 +19°C° 0 mm 3 m/s 754 mmHg 93%
    03:00 +19°C° 0 mm 2 m/s 753 mmHg 93%
    04:00 +19°C° 0 mm 1 m/s 753 mmHg 94%
    05:00 +19°C° 0 mm 1 m/s 753 mmHg 94%
    06:00 +20°C° 0 mm 1 m/s 753 mmHg 89%
    07:00 +22°C° 0 mm 1 m/s 754 mmHg 84%
    08:00 +23°C° 0 mm 2 m/s 754 mmHg 78%
    09:00 +25°C° 0 mm 2 m/s 754 mmHg 71%
    10:00 +27°C° 0 mm 3 m/s 754 mmHg 63%
    11:00 +29°C° 0 mm 4 m/s 754 mmHg 56%
    12:00 +29°C° 0 mm 4 m/s 753 mmHg 56%
    13:00 +29°C° 0 mm 5 m/s 753 mmHg 56%
    14:00 +29°C° 0 mm 5 m/s 753 mmHg 56%
    15:00 +27°C° 0 mm 5 m/s 753 mmHg 61%
    16:00 +26°C° 0 mm 5 m/s 753 mmHg 67%
    17:00 +23°C° 0 mm 6 m/s 753 mmHg 72%
    18:00 +22°C° 0 mm 5 m/s 753 mmHg 79%
    19:00 +21°C° 0 mm 4 m/s 754 mmHg 85%
    20:00 +19°C° 0 mm 4 m/s 754 mmHg 92%
    21:00 +19°C° 0 mm 3 m/s 754 mmHg 91%
    22:00 +19°C° 0 mm 3 m/s 755 mmHg 90%
    23:00 +20°C° 0 mm 3 m/s 755 mmHg 89%

    Demain, 22 Février, Vendredi

    Heure Température Précipitation Vent Pression Humidité
    00:00 +19°C° 0 mm 3 m/s 754 mmHg 90%
    01:00 +19°C° 0 mm 3 m/s 754 mmHg 90%
    02:00 +19°C° 0 mm 3 m/s 754 mmHg 91%
    03:00 +18°C° 0 mm 3 m/s 754 mmHg 92%
    04:00 +18°C° 0 mm 3 m/s 754 mmHg 94%
    05:00 +18°C° 0 mm 3 m/s 754 mmHg 95%
    06:00 +18°C° 0 mm 3 m/s 754 mmHg 91%
    07:00 +19°C° 0 mm 3 m/s 754 mmHg 87%
    08:00 +20°C° 0 mm 3 m/s 755 mmHg 83%
    09:00 +22°C° 0 mm 3 m/s 755 mmHg 71%
    10:00 +25°C° 0 mm 3 m/s 755 mmHg 60%
    11:00 +28°C° 0 mm 3 m/s 755 mmHg 48%
    12:00 +29°C° 0 mm 3 m/s 755 mmHg 46%
    13:00 +29°C° 0 mm 4 m/s 755 mmHg 43%
    14:00 +30°C° 0 mm 5 m/s 754 mmHg 41%
    15:00 +28°C° 0 mm 4 m/s 754 mmHg 45%
    16:00 +27°C° 0 mm 4 m/s 754 mmHg 48%
    17:00 +25°C° 0 mm 4 m/s 754 mmHg 51%
    18:00 +22°C° 0 mm 3 m/s 754 mmHg 60%
    19:00 +20°C° 0 mm 2 m/s 755 mmHg 68%
    20:00 +19°C° 0 mm 1 m/s 755 mmHg 77%
    21:00 +19°C° 0 mm 1 m/s 756 mmHg 79%
    22:00 +19°C° 0 mm 1 m/s 756 mmHg 80%
    23:00 +19°C° 0 mm 1 m/s 757 mmHg 82%

    Après-demain, 23 Février, Samedi

    Heure Température Précipitation Vent Pression Humidité
    00:00 +19°C° 0 mm 1 m/s 757 mmHg 81%
    01:00 +18°C° 0 mm 2 m/s 756 mmHg 80%
    02:00 +18°C° 0 mm 2 m/s 756 mmHg 79%
    03:00 +18°C° 0 mm 2 m/s 756 mmHg 80%
    04:00 +18°C° 0 mm 2 m/s 756 mmHg 80%
    05:00 +18°C° 0 mm 1 m/s 756 mmHg 81%
    06:00 +19°C° 0 mm 2 m/s 756 mmHg 75%
    07:00 +20°C° 0 mm 2 m/s 756 mmHg 69%
    08:00 +21°C° 0 mm 2 m/s 757 mmHg 63%
    09:00 +25°C° 0 mm 2 m/s 756 mmHg 55%
    10:00 +28°C° 0 mm 1 m/s 756 mmHg 46%
    11:00 +31°C° 0 mm 1 m/s 756 mmHg 38%
    12:00 +31°C° 0 mm 2 m/s 756 mmHg 38%
    13:00 +31°C° 0 mm 3 m/s 756 mmHg 37%
    14:00 +32°C° 0 mm 4 m/s 755 mmHg 37%
    15:00 +29°C° 0 mm 4 m/s 755 mmHg 45%
    16:00 +27°C° 0 mm 4 m/s 755 mmHg 53%
    17:00 +25°C° 0 mm 4 m/s 755 mmHg 61%
    18:00 +24°C° 0 mm 3 m/s 756 mmHg 71%
    19:00 +21°C° 0 mm 3 m/s 757 mmHg 81%
    20:00 +20°C° 0 mm 2 m/s 757 mmHg 90%
    21:00 +20°C° 0 mm 2 m/s 758 mmHg 90%
    22:00 +20°C° 0 mm 3 m/s 759 mmHg 89%
    23:00 +21°C° 0 mm 3 m/s 759 mmHg 89%

    24 Février, Dimanche

    Heure Température Précipitation Vent Pression Humidité
    00:00 +20°C° 0 mm 3 m/s 759 mmHg 86%
    01:00 +20°C° 0 mm 3 m/s 759 mmHg 84%
    02:00 +20°C° 0 mm 3 m/s 759 mmHg 81%
    03:00 +19°C° 0 mm 3 m/s 759 mmHg 80%
    04:00 +19°C° 0 mm 3 m/s 759 mmHg 79%
    05:00 +19°C° 0 mm 2 m/s 760 mmHg 78%
    06:00 +19°C° 0 mm 3 m/s 760 mmHg 75%
    07:00 +20°C° 0 mm 3 m/s 761 mmHg 72%
    08:00 +20°C° 0 mm 3 m/s 761 mmHg 70%
    09:00 +21°C° 0 mm 3 m/s 761 mmHg 65%
    10:00 +22°C° 0 mm 3 m/s 762 mmHg 61%
    11:00 +25°C° 0 mm 4 m/s 762 mmHg 56%
    12:00 +23°C° 0 mm 4 m/s 761 mmHg 58%
    13:00 +23°C° 0 mm 4 m/s 761 mmHg 60%
    14:00 +22°C° 0 mm 5 m/s 761 mmHg 62%
    15:00 +22°C° 0 mm 5 m/s 761 mmHg 62%
    16:00 +21°C° 0 mm 5 m/s 761 mmHg 63%
    17:00 +21°C° 0 mm 6 m/s 761 mmHg 64%
    18:00 +20°C° 0 mm 5 m/s 762 mmHg 68%
    19:00 +19°C° 0 mm 5 m/s 763 mmHg 72%
    20:00 +17°C° 0 mm 5 m/s 763 mmHg 76%
    21:00 +17°C° 0 mm 5 m/s 763 mmHg 77%
    22:00 +16°C° 0 mm 5 m/s 764 mmHg 78%
    23:00 +16°C° 0 mm 5 m/s 764 mmHg 79%

    25 Février, Lundi

    Heure Température Précipitation Vent Pression Humidité
    00:00 +16°C° 0 mm 5 m/s 764 mmHg 80%
    01:00 +16°C° 0 mm 5 m/s 763 mmHg 80%
    02:00 +16°C° 0 mm 5 m/s 763 mmHg 81%
    03:00 +16°C° 0 mm 5 m/s 763 mmHg 82%
    04:00 +16°C° 0 mm 5 m/s 764 mmHg 82%
    05:00 +16°C° 0 mm 5 m/s 764 mmHg 82%
    06:00 +17°C° 0 mm 5 m/s 764 mmHg 78%
    07:00 +19°C° 0 mm 6 m/s 764 mmHg 73%
    08:00 +20°C° 0 mm 6 m/s 765 mmHg 68%
    09:00 +21°C° 0 mm 6 m/s 765 mmHg 65%
    10:00 +22°C° 0 mm 7 m/s 765 mmHg 61%
    11:00 +23°C° 0 mm 7 m/s 765 mmHg 57%
    12:00 +23°C° 0 mm 7 m/s 764 mmHg 57%
    13:00 +23°C° 0 mm 7 m/s 763 mmHg 56%
    14:00 +24°C° 0 mm 7 m/s 763 mmHg 56%
    15:00 +23°C° 0 mm 7 m/s 763 mmHg 59%
    16:00 +22°C° 0 mm 8 m/s 763 mmHg 61%
    17:00 +21°C° 0 mm 8 m/s 763 mmHg 64%
    18:00 +20°C° 0 mm 7 m/s 763 mmHg 68%
    19:00 +18°C° 0 mm 7 m/s 763 mmHg 73%
    20:00 +17°C° 0 mm 7 m/s 764 mmHg 77%
    21:00 +17°C° 0 mm 7 m/s 763 mmHg 77%
    22:00 +17°C° 0 mm 7 m/s 763 mmHg 78%
    23:00 +17°C° 0 mm 7 m/s 763 mmHg 78%

    26 Février, Mardi

    Heure Température Précipitation Vent Pression Humidité
    00:00 +17°C° 0 mm 6 m/s 762 mmHg 79%
    01:00 +17°C° 0 mm 6 m/s 762 mmHg 81%
    02:00 +17°C° 0 mm 6 m/s 762 mmHg 82%
    03:00 +17°C° 0 mm 6 m/s 761 mmHg 84%
    04:00 +17°C° 0 mm 6 m/s 761 mmHg 86%
    05:00 +17°C° 0 mm 6 m/s 761 mmHg 88%
    06:00 +19°C° 0 mm 6 m/s 761 mmHg 83%
    07:00 +20°C° 0 mm 6 m/s 761 mmHg 79%
    08:00 +22°C° 0 mm 6 m/s 761 mmHg 74%
    09:00 +23°C° 0 mm 6 m/s 761 mmHg 68%
    10:00 +26°C° 0 mm 6 m/s 760 mmHg 61%
    11:00 +28°C° 0 mm 6 m/s 760 mmHg 54%
    12:00 +29°C° 0 mm 6 m/s 759 mmHg 53%
    13:00 +29°C° 0 mm 6 m/s 759 mmHg 52%
    14:00 +30°C° 0 mm 7 m/s 758 mmHg 50%
    15:00 +29°C° 0 mm 7 m/s 758 mmHg 57%
    16:00 +27°C° 0 mm 7 m/s 757 mmHg 63%
    17:00 +24°C° 0 mm 7 m/s 757 mmHg 69%
    18:00 +23°C° 0 mm 6 m/s 757 mmHg 76%
    19:00 +21°C° 0 mm 6 m/s 758 mmHg 83%
    20:00 +20°C° 0 mm 5 m/s 758 mmHg 90%
    21:00 +20°C° 0 mm 5 m/s 758 mmHg 92%
    22:00 +19°C° 0 mm 4 m/s 758 mmHg 93%
    23:00 +19°C° 0 mm 3 m/s 758 mmHg 95%
    Voir plus